Volver al catálogo

SKYKRAFT-1

ActivoCienciaPO
NORAD 55041·PAYLOAD·🇦🇺 Australia

Lanzado Jan 3, 2023 desde Cape Canaveral Space Force Station

Loading…

Próximos Pases (próximas 24 horas)

TLE

ActualizadoSource: Space-Track

Época: Sep 14, 2026, 23:04 UTC

1 55041U 23001AJ  26257.96166751  .00093383  00000-0  56564-3 0  9999
2 55041  97.3093 339.5308 0002706 108.9278 251.2282 15.77293919207159

Sigue SKYKRAFT-1 en tiempo real con AllMySat

Download on the App Store